Regional Weather Roundup
Issued by NWS

Home | Current Version | Previous Version | Graphics & Text | Print | Product List | Glossary On
Versions: 1 2 3 4 5 6 7 8 9 10 11 12 13 14 15 16 17 18 19 20 21 22 23 24 25 26 27 28 29 30 31 32 33 34 35 36 37 38 39 40 41 42 43 44 45 46 47 48 49 50
000
ASUS45 KCYS 270310
RWRWY

WYOMING REGIONAL WEATHER ROUNDUP
NATIONAL WEATHER SERVICE CHEYENNE WY
900 PM MDT THU MAR 26 2015

NOTE:  "FAIR" INDICATES FEW OR NO CLOUDS BELOW 12,000 FEET
WITH NO SIGNIFICANT WEATHER AND/OR OBSTRUCTIONS TO VISIBILITY.

WYZ001-270400-
YELLOWSTONE NATIONAL PARK

CITY           SKY/WX    TMP DP  RH WIND       PRES   REMARKS
LK YELLOWSTONE   N/A     34  30  85 CALM      30.38S
W YELLOWSTONE  NOT AVBL

$$
WYZ002>013-054>058-071-098>099-270400-
NORTHERN WYOMING

CITY           SKY/WX    TMP DP  RH WIND       PRES   REMARKS
JACKSON        MOCLDY    45  30  57 CALM      30.34R
CODY           FAIR      54  30  40 W13G25    30.16S
GREYBULL       CLOUDY    56  31  38 S6        30.11R
WORLAND        FAIR      47  31  53 S3        30.12S
SHERIDAN       CLOUDY    49  38  65 W7        30.10R
BUFFALO        CLOUDY    50  36  58 NW7       30.12S
GILLETTE       LGT RAIN  47  35  63 E6        30.11R
HULETT         LGT RAIN  41  34  75 NW5       30.14R
NEWCASTLE      FAIR      41  30  65 CALM      30.13R

$$
WYZ014>020-022>026-101>103-270400-
CENTRAL WYOMING

CITY           SKY/WX    TMP DP  RH WIND       PRES   REMARKS
BIG PINEY      FAIR      38  27  64 NW10      30.33R WCI  31
PINEDALE       FAIR      39  30  70 W16       30.32R WCI  30
DUBOIS         FAIR      41  28  60 W18       30.30R
LANDER         FAIR      51  27  39 NW12      30.17R
RIVERTON       FAIR      52  28  39 NW14G22   30.19R
CASPER         CLOUDY    47  30  51 W6        30.16R
DOUGLAS        CLOUDY    46  32  58 S3        30.14R

$$
WYZ021-027>030-104>119-270400-
SOUTHERN WYOMING

CITY           SKY/WX    TMP DP  RH WIND       PRES   REMARKS
EVANSTON       FAIR      44  27  51 NW6       30.38R
KEMMERER       FAIR      37  30  75 NW7       30.38R WCI  32
FORT BRIDGER   FAIR      44  30  58 W14       30.39S
ROCK SPRINGS   FAIR      45  28  51 W17       30.31R
DIXON          CLOUDY    49  27  42 W6        30.29R
RAWLINS        FAIR      50  27  40 W21G28    30.21R
SARATOGA       CLOUDY    48  28  46 W16G22    30.23R
LARAMIE        CLOUDY    45  26  47 VRB7      30.20R
CHEYENNE       CLOUDY    44  26  49 S5        30.17R
TORRINGTON     CLOUDY    43  32  65 E6        30.13R
PINE BLUFFS    FAIR      37  27  65 CALM      30.17R

$$


USA.gov is the U.S. government's official web portal to all federal, state and local government web resources and services.